Retour au catalogue

COSMOS 2491 DEB

LostPO
NORAD 44989·DEBRIS·🇷🇺 Russia

Lancé Dec 25, 2013 depuis Plesetsk Cosmodrome

Loading…

Prochains Passages (prochaines 24 heures)

TLE

PériméSource: Space-Track

Époque: Feb 12, 2020, 01:31 UTC

1 44989U 13076K   20043.06373191  .00000010  00000-0  00000+0 0  9990
2 44989  82.4797 172.9153 0076378  20.6732 339.7598 12.56386902  5126

Suivez COSMOS 2491 DEB en temps réel avec AllMySat

Download on the App Store